Satellite-Ground Cal/Val Region Overpasses Predictions

Prediction of Satellite NPP Overpassing Cal/Val Region: PacNW

Region Location: (Latitude: 10.00, Longitude: 139.50) to (Latitude: 22.70, Longitude: 165.60).

Table of predicted overpasses for the next 14.0 days since TLE Epoch: 7/31/2020
Interval Starting Time Starting Location Ending Time Ending Location
1 08/01/2020 03:36:16 ( 10.02, 145.65) 08/01/2020 03:39:51 ( 22.64, 142.64)
2 08/01/2020 14:29:49 ( 11.55, 165.60) 08/01/2020 14:30:15 ( 10.02, 165.25)
3 08/01/2020 16:08:10 ( 22.64, 142.88) 08/01/2020 16:11:45 ( 10.02, 139.87)
4 08/02/2020 03:17:15 ( 10.02, 150.40) 08/02/2020 03:20:51 ( 22.70, 147.39)
5 08/02/2020 15:49:09 ( 22.65, 147.63) 08/02/2020 15:52:44 ( 10.03, 144.63)
6 08/03/2020 02:58:13 ( 10.01, 155.16) 08/03/2020 03:01:49 ( 22.69, 152.14)
7 08/03/2020 15:30:07 ( 22.66, 152.39) 08/03/2020 15:33:42 ( 10.03, 149.39)
8 08/04/2020 02:39:12 ( 10.00, 159.92) 08/04/2020 02:42:48 ( 22.68, 156.90)
9 08/04/2020 15:11:06 ( 22.66, 157.15) 08/04/2020 15:14:41 ( 10.04, 154.15)
10 08/05/2020 02:20:11 ( 10.06, 164.66) 08/05/2020 02:23:46 ( 22.68, 161.66)
11 08/05/2020 14:52:04 ( 22.67, 161.91) 08/05/2020 14:55:39 ( 10.05, 158.90)
12 08/06/2020 03:42:40 ( 10.05, 144.05) 08/06/2020 03:46:15 ( 22.68, 141.04)
13 08/06/2020 14:34:18 ( 18.27, 165.59) 08/06/2020 14:36:38 ( 10.05, 163.66)
14 08/06/2020 16:14:33 ( 22.67, 141.29) 08/06/2020 16:16:38 ( 15.33, 139.51)
15 08/07/2020 03:23:39 ( 10.05, 148.80) 08/07/2020 03:27:14 ( 22.67, 145.80)
16 08/07/2020 15:55:31 ( 22.67, 146.05) 08/07/2020 15:59:06 ( 10.05, 143.04)
17 08/08/2020 03:04:37 ( 10.04, 153.56) 08/08/2020 03:08:12 ( 22.67, 150.56)
18 08/08/2020 15:36:30 ( 22.68, 150.81) 08/08/2020 15:40:05 ( 10.06, 147.80)
19 08/09/2020 02:45:36 ( 10.04, 158.32) 08/09/2020 02:49:11 ( 22.66, 155.31)
20 08/09/2020 15:17:28 ( 22.68, 155.56) 08/09/2020 15:21:04 ( 10.00, 152.55)
21 08/10/2020 02:26:34 ( 10.04, 163.08) 08/10/2020 02:30:09 ( 22.66, 160.07)
22 08/10/2020 14:58:27 ( 22.69, 160.32) 08/10/2020 15:02:03 ( 10.01, 157.30)
23 08/11/2020 02:10:15 ( 19.55, 165.60) 08/11/2020 02:11:08 ( 22.66, 164.83)
24 08/11/2020 03:49:03 ( 10.04, 142.46) 08/11/2020 03:52:34 ( 22.42, 139.51)
25 08/11/2020 14:39:25 ( 22.69, 165.08) 08/11/2020 14:43:01 ( 10.01, 162.06)
26 08/11/2020 16:20:55 ( 22.69, 139.70) 08/11/2020 16:21:08 ( 21.93, 139.51)
27 08/12/2020 03:30:01 ( 10.03, 147.22) 08/12/2020 03:33:36 ( 22.66, 144.21)
28 08/12/2020 16:01:54 ( 22.69, 144.46) 08/12/2020 16:05:30 ( 10.01, 141.44)
29 08/13/2020 03:11:00 ( 10.03, 151.97) 08/13/2020 03:14:35 ( 22.65, 148.97)
30 08/13/2020 15:42:52 ( 22.69, 149.22) 08/13/2020 15:46:28 ( 10.02, 146.20)
31 08/14/2020 02:51:58 ( 10.03, 156.73) 08/14/2020 02:55:33 ( 22.65, 153.73)
